CZ-3B R/B, 62805

Orbit data source: Space-Track

CZ-3B R/B, 62805 is space debris in HEO originally from a launch on Thu, 23 Jan 2025 UTC launched from the Xichang Space Center, China (XSC). Debris objects in space refer to the collection of defunct objects orbiting the Earth. Examples of debris include non-operational satellites, rocket bodies, and fragments generated from explosions, collisions, or faulty payload assembly.

Loading next visibility...
CZ-3B R/B details
Identifier
62805, 2025-017B
Orbit
HEO
Last TLE update2 days ago
Origin
Flag of CNCASC (CN / PRC)
ManufacturerCALT
MissionSpacecraft
Bus & MotorCZ-3A STAGE 3, Unknown motor
Mass~2,800 kg wet, ~2,800 kg dry
Launch date (UTC)
2025-01-23 (3 weeks ago)
Launch vehicleUnknown
Launch site
Xichang Space Center, China (XSC)
Object type
Payload
Rocket body
Debris
Shape & HBRUnknown
Radar Cross SectionLarge (>1 m²)

Expand to show TLE details & history

TLE from 2 days ago
0 CZ-3B R/B
1 62805U 25017B   25045.90787521  .00192581  15090-5  23546-2 0  9999
2 62805  28.4341 344.6527 7209034 193.3578 125.6082  2.42557942   539
Epoch: 2025-02-14T21:47Z
Definitive object data (Epoch: 2025-02-14T21:47:20.418Z)
Latitude0.00013°
Longitude-127.33779°
Altitude31,302.333 km
Speed2.03 km/s
True Right ascension22h 58m 38s
True Declination0° 00' 00"
Sunlit
Object was in daylight at TLE epoch
Visualization TLE readout
Latitude-9.02949°
Longitude-145.01174°
Altitude21,749.518 km
Speed3.358 km/s
Apparent Right ascension22h 23m 30s
Apparent Declination-15° 52' 48"
Sunlit
Object is in daylight
Visualization observer readout
Local Sidereal Time14:28:24
Azimuth84.092° E
Elevation-32.053°
Doppler factor1
Orbital elements
Apogee altitude33,895.192 km
Perigee altitude153.403 km
Semi-major axis23,402.435 km
Eccentricity0.7209034
Inclination28.4341°
RAAN344.6527°
Arg. of periapsis193.3578°
True anomaly166.69106°
Mean anomaly125.6082°
Eccentric anomaly147.68725°
Mean motion0.60625 °/min
BSTAR0.0023546
Orbital period593.81 mins
Loading maneuver chart data...
Loading historical data...
Loading historical data...
Loading historical data...
Loading historical data...
Loading historical data...
Loading historical data...
Loading historical data...
Other satellites on launch #17 in the year 2025 (2025-01-23 UTC)

CZ-3B R/B Visibility forecast

Observer location: undefined°, undefined

Span
Click to sort rows by Start time (UTC) header in descending order
Start Az.
Max El. time (UTC)
Max El. Az.
Max El.
End time (UTC)
End Az.
497 mins2025-02-16 21:08:00.039Z223.973° SW2025-02-17 05:17:00.039Z227.398° WSW31.696°2025-02-17 05:25:00.039Z163.928° S
|